ISS1262 LIEO-LFKF

Flight info

Callsign ISS1262
Flight time 0h 21m
Altitude 12000
Route OLBEK DCT ASKAG
Aircraft B739/M-SDE2E3FGHIRWXY/LB1

Departure

Time 2026-05-05 05:35
Airport Olbia Costa Smeralda Airport (LIEO)

Arrival

Time 2026-05-05 05:56
Airport Figari Sud-Corse Airport (LFKF)
Time Latitude Longitude Altitude Speed Heading
2026-05-05 05:20 40.90114 9.51394 46 ft 0 kts 24°
2026-05-05 05:32 40.90115 9.51395 46 ft 0 kts 31°
2026-05-05 05:32 40.90115 9.51408 46 ft 3 kts 103°
2026-05-05 05:32 40.90083 9.51459 46 ft 12 kts 139°
2026-05-05 05:32 40.89997 9.51511 46 ft 17 kts 179°
2026-05-05 05:33 40.89897 9.51421 46 ft 24 kts 234°
2026-05-05 05:33 40.89761 9.51167 46 ft 39 kts 234°
2026-05-05 05:33 40.89618 9.50892 46 ft 39 kts 234°
2026-05-05 05:33 40.89478 9.50623 46 ft 34 kts 235°
2026-05-05 05:34 40.89329 9.50440 47 ft 32 kts 171°
2026-05-05 05:34 40.89289 9.50656 46 ft 29 kts 56°
2026-05-05 05:34 40.89310 9.50693 46 ft 0 kts 53°
2026-05-05 05:34 40.89395 9.50854 47 ft 73 kts 58°
2026-05-05 05:35 40.89858 9.51743 47 ft 170 kts 57°
2026-05-05 05:35 40.90643 9.53128 458 ft 224 kts 54°
2026-05-05 05:35 40.91581 9.54675 1532 ft 248 kts 51°
2026-05-05 05:35 40.92581 9.56443 2805 ft 253 kts 55°
2026-05-05 05:36 40.93524 9.58357 4006 ft 262 kts 56°
2026-05-05 05:36 40.94496 9.60318 5276 ft 267 kts 55°
2026-05-05 05:36 40.95545 9.62361 6489 ft 275 kts 54°
2026-05-05 05:36 40.96625 9.64415 7748 ft 281 kts 53°
2026-05-05 05:37 40.97741 9.66499 9003 ft 285 kts 52°
2026-05-05 05:37 40.99056 9.68472 10148 ft 291 kts 38°
2026-05-05 05:37 41.00771 9.69903 11066 ft 303 kts 22°
2026-05-05 05:37 41.02720 9.71031 11755 ft 320 kts 19°
2026-05-05 05:38 41.04879 9.72205 11978 ft 352 kts 19°
2026-05-05 05:38 41.07263 9.73558 11991 ft 386 kts 21°
2026-05-05 05:38 41.09745 9.75048 11989 ft 399 kts 22°
2026-05-05 05:38 41.12284 9.76630 11985 ft 403 kts 23°
2026-05-05 05:39 41.14787 9.78217 11983 ft 403 kts 23°
2026-05-05 05:39 41.17317 9.79829 11980 ft 404 kts 23°
2026-05-05 05:39 41.19873 9.81457 11979 ft 403 kts 23°
2026-05-05 05:39 41.22402 9.83067 11980 ft 404 kts 23°
2026-05-05 05:40 41.24973 9.84523 11977 ft 402 kts 17°
2026-05-05 05:40 41.27663 9.85264 11978 ft 395 kts 359°
2026-05-05 05:40 41.30380 9.85053 11980 ft 391 kts 349°
2026-05-05 05:40 41.33041 9.84480 11977 ft 389 kts 346°
2026-05-05 05:41 41.35684 9.83803 11978 ft 389 kts 345°
2026-05-05 05:41 41.38362 9.83120 11975 ft 389 kts 346°
2026-05-05 05:41 41.40985 9.82498 11976 ft 389 kts 347°
2026-05-05 05:41 41.43659 9.81914 11975 ft 388 kts 347°
2026-05-05 05:42 41.46333 9.81364 11972 ft 390 kts 348°
2026-05-05 05:42 41.48985 9.80838 11969 ft 388 kts 348°
2026-05-05 05:42 41.51663 9.80318 11970 ft 389 kts 348°
2026-05-05 05:42 41.54346 9.79797 11968 ft 386 kts 348°
2026-05-05 05:43 41.56959 9.79295 11965 ft 373 kts 348°
2026-05-05 05:43 41.59500 9.78804 11896 ft 367 kts 348°
2026-05-05 05:43 41.61973 9.78327 11530 ft 354 kts 347°
2026-05-05 05:43 41.64399 9.77856 11082 ft 344 kts 347°
2026-05-05 05:44 41.66690 9.77408 10787 ft 331 kts 347°
2026-05-05 05:44 41.68941 9.76970 10625 ft 315 kts 347°
2026-05-05 05:44 41.70969 9.76575 10532 ft 301 kts 347°
2026-05-05 05:44 41.73046 9.76158 10417 ft 311 kts 346°
2026-05-05 05:45 41.75118 9.75516 10250 ft 296 kts 336°
2026-05-05 05:45 41.76823 9.74236 10097 ft 274 kts 311°
2026-05-05 05:45 41.77817 9.72177 9969 ft 256 kts 287°
2026-05-05 05:45 41.78185 9.69853 9921 ft 257 kts 274°
2026-05-05 05:46 41.78215 9.67481 9681 ft 253 kts 264°
2026-05-05 05:46 41.77954 9.65190 9354 ft 250 kts 258°
2026-05-05 05:46 41.77611 9.62917 9025 ft 250 kts 258°
2026-05-05 05:46 41.77286 9.60659 8701 ft 249 kts 259°
2026-05-05 05:47 41.76989 9.58388 8370 ft 247 kts 260°
2026-05-05 05:47 41.76708 9.56132 8048 ft 243 kts 260°
2026-05-05 05:47 41.76440 9.53958 7744 ft 235 kts 260°
2026-05-05 05:47 41.76177 9.51828 7441 ft 233 kts 259°
2026-05-05 05:48 41.75863 9.49711 7142 ft 230 kts 253°
2026-05-05 05:48 41.75194 9.47905 6870 ft 232 kts 235°
2026-05-05 05:48 41.74143 9.46289 6434 ft 234 kts 229°
2026-05-05 05:48 41.73040 9.44698 5937 ft 232 kts 230°
2026-05-05 05:49 41.72009 9.43137 5465 ft 229 kts 231°
2026-05-05 05:49 41.70976 9.41538 4972 ft 226 kts 231°
2026-05-05 05:49 41.70022 9.40085 4514 ft 225 kts 230°
2026-05-05 05:49 41.69070 9.38647 4095 ft 221 kts 230°
2026-05-05 05:50 41.68151 9.37260 3980 ft 214 kts 230°
2026-05-05 05:50 41.67211 9.35829 3981 ft 215 kts 230°
2026-05-05 05:50 41.66329 9.34483 3979 ft 195 kts 229°
2026-05-05 05:50 41.65494 9.33252 3985 ft 185 kts 229°
2026-05-05 05:51 41.64709 9.32085 4002 ft 183 kts 230°
2026-05-05 05:51 41.63969 9.30941 3987 ft 166 kts 231°
2026-05-05 05:51 41.63308 9.29883 3990 ft 164 kts 231°
2026-05-05 05:51 41.62649 9.28829 3992 ft 163 kts 230°
2026-05-05 05:52 41.61975 9.27798 3937 ft 164 kts 230°
2026-05-05 05:52 41.61263 9.26708 3693 ft 164 kts 230°
2026-05-05 05:52 41.60595 9.25674 3444 ft 163 kts 230°
2026-05-05 05:52 41.59901 9.24598 3198 ft 164 kts 230°
2026-05-05 05:53 41.59224 9.23549 2979 ft 157 kts 230°
2026-05-05 05:53 41.58574 9.22542 2736 ft 155 kts 230°
2026-05-05 05:53 41.57946 9.21570 2512 ft 146 kts 230°
2026-05-05 05:53 41.57359 9.20661 2313 ft 146 kts 230°
2026-05-05 05:54 41.56748 9.19719 2103 ft 145 kts 230°
2026-05-05 05:54 41.56147 9.18794 1897 ft 145 kts 230°
2026-05-05 05:54 41.55548 9.17866 1688 ft 145 kts 230°
2026-05-05 05:54 41.54949 9.16942 1481 ft 145 kts 230°
2026-05-05 05:55 41.54337 9.15997 1269 ft 144 kts 230°
2026-05-05 05:55 41.53720 9.15047 1066 ft 145 kts 229°
2026-05-05 05:55 41.53114 9.14099 900 ft 142 kts 231°
2026-05-05 05:55 41.52547 9.13153 710 ft 135 kts 231°
2026-05-05 05:56 41.51958 9.12270 502 ft 135 kts 229°
2026-05-05 05:56 41.51376 9.11395 244 ft 133 kts 229°
2026-05-05 05:56 41.50817 9.10579 77 ft 119 kts 223°
2026-05-05 05:56 41.50421 9.09982 73 ft 48 kts 229°
2026-05-05 05:57 41.50266 9.09760 70 ft 22 kts 227°
2026-05-05 05:57 41.50151 9.09748 68 ft 20 kts 138°
2026-05-05 05:57 41.50110 9.09800 67 ft 2 kts 143°
2026-05-05 05:57 41.50068 9.09807 66 ft 8 kts 198°
2026-05-05 05:58 41.50016 9.09761 65 ft 9 kts 192°
2026-05-05 05:58 41.49992 9.09769 65 ft 5 kts 152°
2026-05-05 05:58 41.49971 9.09787 65 ft 0 kts 138°